STARLINK-3761, 52262

Orbit data source: Space-Track

STARLINK-3761, 52262 is a payload satellite owned by SpaceX/Seattle (US) in LEO that was launched on Thu, 21 Apr 2022 UTC via an FALCON 9 launch vehicle from the Air Force Eastern Test Range (AFETR). Payload-class satellites include a variety of spacecraft equipped with specific instruments for various scientific and technological missions. These include communications satellites like Starlink; space stations such as the ISS; scientific satellites like the Hubble; Earth observation satellites from companies like Planet Labs, Umbra, and HawkEye 360; GPS; miniature CubeSats for education and research; and military/defense satellites.

Loading next visibility...
Identifier
52262, 2022-041B
Orbit
LEO
Country
Flag of USUS
Related business
Manufacturer
SpaceX/Seattle
Mission
Operational Commercial Communications
Bus & Motor
STARLINK, Unknown motor
Mass
297 kg wet, ~275 kg dry
Launch date (UTC)
2022-04-21 (4 years ago)
Launch vehicle
FALCON 9
Launch site
Air Force Eastern Test Range (AFETR)
Object type
Payload
Rocket body
Debris
Shape & HBR
Box + 1 Pan, 10.1 m
Radar Cross Section
11.087 m², Large (>1 m²)

Expand to show TLE details & history
Last TLE update: 18 hours ago

TLE from 18 hours ago
0 STARLINK-3761
1 52262U 22041B   26175.22595421 -.00000032  00000-0  16094-4 0  9997
2 52262  53.1595 350.6722 0001190  92.7958 267.3169 15.08834019230449
Epoch: 2026-06-24T05:25Z
TLE epoch observation values (Epoch: 2026-06-24T05:25:22.443Z)
Latitude
-0.00008°
Longitude
-3.05759°
Altitude
540.692 km
Speed
7.593 km/s
True Right ascension
23h 22m 41s
True Declination
0° 00' 00"
Sunlit
Object was in daylight at epoch
Visualization orbit readout
Latitude
Unknown
Longitude
Unknown
Altitude
Unknown
Speed
Unknown
Apparent Right ascension
Unknown
Apparent Declination
Unknown
Sunlit
N/A
Visualization observer readout
Local Sidereal Time
10:34:22
Azimuth
Unknown
Elevation
Unknown
Doppler factor
Unknown
Orbital elements
Apogee altitude
540.839 km
Perigee altitude
539.193 km
Semi-major axis
6,918.153 km
Eccentricity
0.00012
Inclination
53.1595°
RAAN
350.6722°
Arg. of periapsis
92.7958°
True anomaly
267.30328°
Mean anomaly
267.3169°
Eccentric anomaly
267.31009°
Mean motion
3.77188 °/min
Orbital period
95.44 mins
BSTAR
0.000016094
Loading maneuver chart data...
Computing Atmospheric mass density...
Loading historical data...
Loading historical data...
Loading historical data...
Loading historical data...
Loading historical data...
Loading historical data...
Loading historical data...

Documentation

Showing up to 5 results
|